Ifestos I — SV4139 — position and weather

sailwx.info

Track history (hours):
 
Tides and Currents Weather Stations Pressure Air Temp Water Temp Dewpoint Dewpoint Depression Visibility Wind Speed Wind Dir Waves Ship Positions

Ifestos I

Last reported at 2014-Nov-27 22:33 UTC. Time now 2014-Nov-27 23:02 UTC.
Position N 37°57' E 023°37'.

Length 30 m.

Type: Tug. MMSI: 237070500.

Date/timePositionNaut miles runAvg speedWind from/ knotsBaromVisibWave heightAir tempDewpointWater temp
2014-Nov-27 22:33N 37°57' E 023°37'0 0.0
2014-Nov-27 21:33N 37°57' E 023°37'0 0.0
2014-Nov-27 20:33N 37°57' E 023°37'0 0.0
2014-Nov-27 19:33N 37°57' E 023°37'0 0.0
2014-Nov-27 18:33N 37°57' E 023°37'0 0.0
2014-Nov-27 17:33N 37°57' E 023°37'0 0.0
2014-Nov-27 16:33N 37°57' E 023°37'0 0.0
2014-Nov-27 15:33N 37°57' E 023°37'0 0.0
2014-Nov-27 14:33N 37°57' E 023°37'0 0.0
2014-Nov-27 13:33N 37°57' E 023°37'0 0.0
2014-Nov-27 12:33N 37°57' E 023°37'0 0.0
2014-Nov-27 11:33N 37°57' E 023°37'0 0.0
2014-Nov-27 10:33N 37°57' E 023°37'0 0.0
2014-Nov-27 09:33N 37°57' E 023°37'0 0.0
2014-Nov-27 08:33N 37°57' E 023°37'0 0.0
2014-Nov-27 07:33N 37°57' E 023°37'0 0.0
2014-Nov-27 06:33N 37°57' E 023°37'0 0.0
2014-Nov-27 05:33N 37°57' E 023°37'0 0.0
2014-Nov-27 04:33N 37°57' E 023°37'0 0.0
2014-Nov-27 03:33N 37°57' E 023°37'0 0.0
2014-Nov-27 02:33N 37°57' E 023°37'0 0.0
2014-Nov-27 01:33N 37°57' E 023°37'0 0.0
2014-Nov-27 00:34N 37°57' E 023°37'0 0.0
2014-Nov-26 23:33N 37°57' E 023°37'0 0.0
2014-Nov-26 22:33N 37°57' E 023°37'0 0.0
2014-Nov-26 21:33N 37°57' E 023°37'0 0.0
2014-Nov-26 20:33N 37°57' E 023°37'0 0.0
2014-Nov-26 19:33N 37°57' E 023°37'0 0.0
2014-Nov-26 18:33N 37°57' E 023°37'0 0.0
2014-Nov-26 17:33N 37°57' E 023°37'4 4.2
2014-Nov-26 16:33N 38°00' E 023°32'1 1.1
2014-Nov-26 15:33N 38°01' E 023°32'1 0.9
2014-Nov-26 14:33N 38°02' E 023°32'0 0.0
2014-Nov-26 13:33N 38°02' E 023°32'0 0.0
2014-Nov-26 12:33N 38°02' E 023°32'0 0.0
2014-Nov-26 11:33N 38°02' E 023°32'0 0.0
2014-Nov-26 10:33N 38°02' E 023°32'0 0.0
2014-Nov-26 09:33N 38°02' E 023°32'0 0.0
2014-Nov-26 08:33N 38°02' E 023°32'3 2.6
2014-Nov-26 07:33N 38°01' E 023°36'0 0.1
2014-Nov-26 06:33N 38°01' E 023°36'0 0.0
2014-Nov-26 05:33N 38°01' E 023°35'4 4.4
2014-Nov-26 04:33N 37°57' E 023°33'2 2.3
2014-Nov-26 03:33N 37°57' E 023°36'0 0.0
2014-Nov-26 02:33N 37°57' E 023°36'0 0.0
2014-Nov-26 01:33N 37°57' E 023°36'0 0.0
2014-Nov-26 00:33N 37°57' E 023°36'0 0.4
2014-Nov-25 23:33N 37°57' E 023°36'0 0.4
2014-Nov-25 22:33N 37°57' E 023°36'1 0.7
2014-Nov-25 21:33N 37°57' E 023°35'5 4.5
2014-Nov-25 20:33N 38°02' E 023°36'0 0.1
2014-Nov-25 19:33N 38°01' E 023°35'0 0.0
2014-Nov-25 18:33N 38°01' E 023°35'0 0.0
2014-Nov-25 17:33N 38°01' E 023°35'4 4.1
2014-Nov-25 16:33N 37°57' E 023°36'0 0.1
2014-Nov-25 15:33N 37°57' E 023°36'0 0.0
2014-Nov-25 14:33N 37°57' E 023°36'0 0.0
2014-Nov-25 13:33N 37°57' E 023°36'0 0.0
2014-Nov-25 12:33N 37°57' E 023°36'0 0.0
2014-Nov-25 11:33N 37°57' E 023°36'2 1.9
2014-Nov-25 10:33N 37°57' E 023°34'2 1.9
2014-Nov-25 09:33N 37°57' E 023°36'0 0.0
2014-Nov-25 08:33N 37°57' E 023°36'2 2.2
2014-Nov-25 07:33N 37°58' E 023°33'1 1.3
2014-Nov-25 06:33N 37°57' E 023°35'1 0.7
2014-Nov-25 05:33N 37°57' E 023°36'0 0.4
2014-Nov-25 04:33N 37°57' E 023°36'1 0.6
2014-Nov-25 03:33N 37°57' E 023°37'0 0.0
2014-Nov-25 02:33N 37°57' E 023°37'0 0.0
2014-Nov-25 01:33N 37°57' E 023°37'0 0.0
2014-Nov-25 00:33N 37°57' E 023°37'0 0.0
2014-Nov-24 23:33N 37°57' E 023°37'0 0.0
2014-Nov-24 22:33N 37°57' E 023°37'0 0.0
2014-Nov-24 21:33N 37°57' E 023°37'0 0.0
2014-Nov-24 20:33N 37°57' E 023°37'4 3.8
2014-Nov-24 19:33N 37°60' E 023°33'7 7.3
2014-Nov-24 18:33N 37°58' E 023°24'5 4.9
2014-Nov-24 17:33N 38°01' E 023°29'3 3.2
2014-Nov-24 16:33N 38°02' E 023°32'0 0.0
2014-Nov-24 15:33N 38°02' E 023°32'0 0.0
2014-Nov-24 14:33N 38°02' E 023°32'0 0.0
2014-Nov-24 13:33N 38°02' E 023°32'0 0.0
2014-Nov-24 12:33N 38°02' E 023°32'2 2.5
2014-Nov-24 11:33N 38°01' E 023°36'0 0.0
2014-Nov-24 10:33N 38°01' E 023°36'0 0.0
2014-Nov-24 09:20N 38°01' E 023°36'0 0.1
2014-Nov-24 08:32N 38°01' E 023°35'1 0.9
2014-Nov-24 07:33N 38°01' E 023°35'1 0.9
2014-Nov-24 06:33N 38°01' E 023°36'0 0.0
2014-Nov-24 05:33N 38°01' E 023°36'0 0.0
2014-Nov-24 04:33N 38°01' E 023°36'0 0.0
2014-Nov-24 03:33N 38°01' E 023°36'0 0.0
2014-Nov-24 02:33N 38°01' E 023°36'0 0.0
2014-Nov-24 01:33N 38°01' E 023°36'0 0.0
2014-Nov-24 00:33N 38°01' E 023°36'0 0.0
2014-Nov-23 23:33N 38°01' E 023°36'0 0.0
2014-Nov-23 22:33N 38°01' E 023°36'0 0.0
2014-Nov-23 21:33N 38°01' E 023°36'0 0.0
2014-Nov-23 20:33N 38°01' E 023°36'0 0.0
2014-Nov-23 19:33N 38°01' E 023°36'0 0.0
2014-Nov-23 18:33N 38°01' E 023°36'0 0.0
2014-Nov-23 17:33N 38°01' E 023°36'0 0.0
2014-Nov-23 16:33N 38°01' E 023°36'0 0.2
2014-Nov-23 15:33N 38°02' E 023°36'3 2.6
2014-Nov-23 14:33N 38°01' E 023°32'1 0.6
2014-Nov-23 13:33N 38°02' E 023°32'0 0.0
2014-Nov-23 12:33N 38°02' E 023°32'0 0.0
2014-Nov-23 11:33N 38°02' E 023°32'0 0.0
2014-Nov-23 10:33N 38°02' E 023°32'0 0.0
2014-Nov-23 09:33N 38°02' E 023°32'7 6.7
2014-Nov-23 08:33N 37°58' E 023°26'2 1.9
2014-Nov-23 07:33N 37°58' E 023°23'5 4.9
2014-Nov-23 06:33N 38°00' E 023°28'6 6.2
2014-Nov-23 05:33N 37°57' E 023°35'1 1.0
2014-Nov-23 04:33N 37°57' E 023°37'0 0.0
2014-Nov-23 03:33N 37°57' E 023°37'0 0.0
2014-Nov-23 02:33N 37°57' E 023°37'0 0.0
2014-Nov-23 01:33N 37°57' E 023°37'0 0.0
2014-Nov-23 00:15N 37°57' E 023°37'0 0.0
2014-Nov-22 23:33N 37°57' E 023°37'0 0.0
2014-Nov-22 22:33N 37°57' E 023°37'0 0.0
2014-Nov-22 21:33N 37°57' E 023°37'0 0.0
2014-Nov-22 20:33N 37°57' E 023°37'0 0.0
2014-Nov-22 19:33N 37°57' E 023°37'0 0.0
2014-Nov-22 18:33N 37°57' E 023°37'0 0.0
2014-Nov-22 17:33N 37°57' E 023°37'0 0.0
2014-Nov-22 16:33N 37°57' E 023°37'0 0.0
2014-Nov-22 15:33N 37°57' E 023°37'0 0.0
2014-Nov-22 14:33N 37°57' E 023°37'0 0.0
2014-Nov-22 13:33N 37°57' E 023°37'0 0.0
2014-Nov-22 12:33N 37°57' E 023°37'0 0.0
2014-Nov-22 11:33N 37°57' E 023°37'0 0.0
2014-Nov-22 10:33N 37°57' E 023°37'0 0.0
2014-Nov-22 09:33N 37°57' E 023°37'0 0.0
2014-Nov-22 08:33N 37°57' E 023°37'0 0.0
2014-Nov-22 07:33N 37°57' E 023°37'0 0.0
2014-Nov-22 06:33N 37°57' E 023°37'0 0.0
2014-Nov-22 05:33N 37°57' E 023°37'0 0.0
2014-Nov-22 04:33N 37°57' E 023°37'0 0.0
2014-Nov-22 03:33N 37°57' E 023°37'0 0.0
2014-Nov-22 02:33N 37°57' E 023°37'0 0.0
2014-Nov-22 01:33N 37°57' E 023°37'0 0.0
2014-Nov-22 00:33N 37°57' E 023°37'0 0.0
2014-Nov-21 23:33N 37°57' E 023°37'0 0.0
2014-Nov-21 22:33N 37°57' E 023°37'0 0.0
2014-Nov-21 21:33N 37°57' E 023°37'0 0.0
2014-Nov-21 20:33N 37°57' E 023°37'0 0.0
2014-Nov-21 19:33N 37°57' E 023°37'0 0.0
2014-Nov-21 18:33N 37°57' E 023°37'0 0.0
2014-Nov-21 17:33N 37°57' E 023°37'0 0.0
2014-Nov-21 16:33N 37°57' E 023°37'2 2.5
2014-Nov-21 15:33N 37°57' E 023°33'3 3.2
2014-Nov-21 14:33N 37°54' E 023°34'3 2.9
2014-Nov-21 13:33N 37°57' E 023°35'1 1.0
2014-Nov-21 12:33N 37°57' E 023°37'1 1.0
2014-Nov-21 11:33N 37°57' E 023°36'1 1.0
2014-Nov-21 10:33N 37°57' E 023°37'0 0.0
2014-Nov-21 09:33N 37°57' E 023°37'2 2.2
2014-Nov-21 08:33N 37°58' E 023°34'2 1.8
2014-Nov-21 07:34N 37°57' E 023°36'0 0.0
2014-Nov-21 06:33N 37°57' E 023°36'0 0.0
2014-Nov-21 05:33N 37°57' E 023°36'1 0.6
2014-Nov-21 04:33N 37°57' E 023°35'1 1.1
2014-Nov-21 03:33N 37°57' E 023°37'0 0.0
2014-Nov-21 02:32N 37°57' E 023°37'0 0.0
2014-Nov-21 01:33N 37°57' E 023°37'0 0.0
2014-Nov-21 00:33N 37°57' E 023°37'0 0.0
2014-Nov-20 23:33N 37°57' E 023°37'0 0.0
2014-Nov-20 22:33N 37°57' E 023°37'0 0.0
2014-Nov-20 21:33N 37°57' E 023°37'0 0.0
2014-Nov-20 20:33N 37°57' E 023°37'0 0.0
2014-Nov-20 19:33N 37°57' E 023°37'0 0.0
2014-Nov-20 18:33N 37°57' E 023°37'0 0.0
2014-Nov-20 17:33N 37°57' E 023°37'1 1.1
2014-Nov-20 16:33N 37°57' E 023°35'1 1.1
2014-Nov-20 15:33N 37°57' E 023°37'0 0.0
2014-Nov-20 14:33N 37°57' E 023°37'0 0.0
2014-Nov-20 13:33N 37°57' E 023°37'0 0.0
2014-Nov-20 12:33N 37°57' E 023°37'0 0.0
2014-Nov-20 11:33N 37°57' E 023°37'1 0.7
2014-Nov-20 10:33N 37°57' E 023°36'1 0.7
2014-Nov-20 09:33N 37°57' E 023°37'0 0.0
2014-Nov-20 08:33N 37°57' E 023°37'1 1.1
2014-Nov-20 07:33N 37°57' E 023°35'2 1.8
2014-Nov-20 06:32N 37°58' E 023°33'3 3.5
2014-Nov-20 05:33N 37°55' E 023°37'2 0.6
2014-Nov-20 02:31N 37°57' E 023°37'0 0.0
2014-Nov-20 01:16N 37°57' E 023°37'0 0.0
2014-Nov-20 00:34N 37°57' E 023°37'0 0.0
2014-Nov-19 23:33N 37°57' E 023°37'0 0.0
2014-Nov-19 22:33N 37°57' E 023°37'0 0.0
2014-Nov-19 21:33N 37°57' E 023°37'0 0.0
2014-Nov-19 20:33N 37°57' E 023°37'0 0.0
2014-Nov-19 19:33N 37°57' E 023°37'0 0.0
2014-Nov-19 18:33N 37°57' E 023°37'6 6.5
2014-Nov-19 17:33N 38°02' E 023°30'0 0.4
2014-Nov-19 16:33N 38°02' E 023°31'0 0.0
2014-Nov-19 15:33N 38°02' E 023°31'1 0.6
2014-Nov-19 14:33N 38°02' E 023°31'7 7.5
2014-Nov-19 13:33N 37°56' E 023°37'0 0.0
2014-Nov-19 12:33N 37°56' E 023°37'0 0.0
2014-Nov-19 11:33N 37°56' E 023°37'3 2.5
2014-Nov-19 10:33N 37°57' E 023°34'6 6.0
2014-Nov-19 09:33N 38°02' E 023°30'0 0.5
2014-Nov-19 08:33N 38°02' E 023°31'6 6.3
2014-Nov-19 07:33N 37°57' E 023°36'1 0.7
2014-Nov-19 06:33N 37°57' E 023°37'1 1.0
2014-Nov-19 05:33N 37°57' E 023°35'0 0.1
2014-Nov-19 04:33N 37°57' E 023°35'1 1.0
2014-Nov-19 03:33N 37°57' E 023°37'0 0.0
2014-Nov-19 02:33N 37°57' E 023°37'0 0.0
2014-Nov-19 01:33N 37°57' E 023°37'4 4.5
2014-Nov-19 00:33N 38°00' E 023°32'1 1.3
2014-Nov-18 23:33N 38°01' E 023°31'2 2.2
2014-Nov-18 22:33N 37°60' E 023°33'4 3.6
2014-Nov-18 21:33N 37°57' E 023°37'0 0.0
2014-Nov-18 20:33N 37°57' E 023°37'0 0.0
2014-Nov-18 19:20N 37°57' E 023°37'0 0.0
2014-Nov-18 18:33N 37°57' E 023°37'0 0.0
2014-Nov-18 17:33N 37°57' E 023°37'0 0.0
2014-Nov-18 16:33N 37°57' E 023°37'0 0.0
2014-Nov-18 15:33N 37°57' E 023°37'0 0.0
2014-Nov-18 14:33N 37°57' E 023°37'0 0.2
2014-Nov-18 12:32N 37°57' E 023°36'0 0.5
2014-Nov-18 11:33N 37°57' E 023°37'0 0.0
2014-Nov-18 10:33N 37°57' E 023°37'1 0.8
2014-Nov-18 09:33N 37°57' E 023°36'5 4.6
2014-Nov-18 08:33N 38°02' E 023°36'4 4.4
2014-Nov-18 07:33N 37°58' E 023°34'1 1.1
2014-Nov-18 06:33N 37°57' E 023°35'0 0.1
2014-Nov-18 05:33N 37°57' E 023°35'0 0.4
2014-Nov-18 04:32N 37°57' E 023°36'1 0.6
2014-Nov-18 03:15N 37°57' E 023°37'0 0.0
2014-Nov-18 01:33N 37°57' E 023°37'0 0.0
2014-Nov-18 00:33N 37°57' E 023°37'0 0.0
2014-Nov-17 23:33N 37°57' E 023°37'0 0.0
2014-Nov-17 22:33N 37°57' E 023°37'  
Track history (hours):
 
Tides and Currents Weather Stations Pressure Air Temp Water Temp Dewpoint Dewpoint Depression Visibility Wind Speed Wind Dir Waves Ship Positions

Ifestos I

Last reported at 2014-Nov-27 22:33 UTC. Time now 2014-Nov-27 23:02 UTC.
Position N 37°57' E 023°37'.

Length 30 m.

Type: Tug. MMSI: 237070500.

Date/timePositionNaut miles runAvg speedWind from/ knotsBaromVisibWave heightAir tempDewpointWater temp
2014-Nov-27 22:33N 37°57' E 023°37'0 0.0
2014-Nov-27 21:33N 37°57' E 023°37'0 0.0
2014-Nov-27 20:33N 37°57' E 023°37'0 0.0
2014-Nov-27 19:33N 37°57' E 023°37'0 0.0
2014-Nov-27 18:33N 37°57' E 023°37'0 0.0
2014-Nov-27 17:33N 37°57' E 023°37'0 0.0
2014-Nov-27 16:33N 37°57' E 023°37'0 0.0
2014-Nov-27 15:33N 37°57' E 023°37'0 0.0
2014-Nov-27 14:33N 37°57' E 023°37'0 0.0
2014-Nov-27 13:33N 37°57' E 023°37'0 0.0
2014-Nov-27 12:33N 37°57' E 023°37'0 0.0
2014-Nov-27 11:33N 37°57' E 023°37'0 0.0
2014-Nov-27 10:33N 37°57' E 023°37'0 0.0
2014-Nov-27 09:33N 37°57' E 023°37'0 0.0
2014-Nov-27 08:33N 37°57' E 023°37'0 0.0
2014-Nov-27 07:33N 37°57' E 023°37'0 0.0
2014-Nov-27 06:33N 37°57' E 023°37'0 0.0
2014-Nov-27 05:33N 37°57' E 023°37'0 0.0
2014-Nov-27 04:33N 37°57' E 023°37'0 0.0
2014-Nov-27 03:33N 37°57' E 023°37'0 0.0
2014-Nov-27 02:33N 37°57' E 023°37'0 0.0
2014-Nov-27 01:33N 37°57' E 023°37'0 0.0
2014-Nov-27 00:34N 37°57' E 023°37'0 0.0
2014-Nov-26 23:33N 37°57' E 023°37'0 0.0
2014-Nov-26 22:33N 37°57' E 023°37'0 0.0
2014-Nov-26 21:33N 37°57' E 023°37'0 0.0
2014-Nov-26 20:33N 37°57' E 023°37'0 0.0
2014-Nov-26 19:33N 37°57' E 023°37'0 0.0
2014-Nov-26 18:33N 37°57' E 023°37'0 0.0
2014-Nov-26 17:33N 37°57' E 023°37'4 4.2
2014-Nov-26 16:33N 38°00' E 023°32'1 1.1
2014-Nov-26 15:33N 38°01' E 023°32'1 0.9
2014-Nov-26 14:33N 38°02' E 023°32'0 0.0
2014-Nov-26 13:33N 38°02' E 023°32'0 0.0
2014-Nov-26 12:33N 38°02' E 023°32'0 0.0
2014-Nov-26 11:33N 38°02' E 023°32'0 0.0
2014-Nov-26 10:33N 38°02' E 023°32'0 0.0
2014-Nov-26 09:33N 38°02' E 023°32'0 0.0
2014-Nov-26 08:33N 38°02' E 023°32'3 2.6
2014-Nov-26 07:33N 38°01' E 023°36'0 0.1
2014-Nov-26 06:33N 38°01' E 023°36'0 0.0
2014-Nov-26 05:33N 38°01' E 023°35'4 4.4
2014-Nov-26 04:33N 37°57' E 023°33'2 2.3
2014-Nov-26 03:33N 37°57' E 023°36'0 0.0
2014-Nov-26 02:33N 37°57' E 023°36'0 0.0
2014-Nov-26 01:33N 37°57' E 023°36'0 0.0
2014-Nov-26 00:33N 37°57' E 023°36'0 0.4
2014-Nov-25 23:33N 37°57' E 023°36'0 0.4
2014-Nov-25 22:33N 37°57' E 023°36'1 0.7
2014-Nov-25 21:33N 37°57' E 023°35'5 4.5
2014-Nov-25 20:33N 38°02' E 023°36'0 0.1
2014-Nov-25 19:33N 38°01' E 023°35'0 0.0
2014-Nov-25 18:33N 38°01' E 023°35'0 0.0
2014-Nov-25 17:33N 38°01' E 023°35'4 4.1
2014-Nov-25 16:33N 37°57' E 023°36'0 0.1
2014-Nov-25 15:33N 37°57' E 023°36'0 0.0
2014-Nov-25 14:33N 37°57' E 023°36'0 0.0
2014-Nov-25 13:33N 37°57' E 023°36'0 0.0
2014-Nov-25 12:33N 37°57' E 023°36'0 0.0
2014-Nov-25 11:33N 37°57' E 023°36'2 1.9
2014-Nov-25 10:33N 37°57' E 023°34'2 1.9
2014-Nov-25 09:33N 37°57' E 023°36'0 0.0
2014-Nov-25 08:33N 37°57' E 023°36'2 2.2
2014-Nov-25 07:33N 37°58' E 023°33'1 1.3
2014-Nov-25 06:33N 37°57' E 023°35'1 0.7
2014-Nov-25 05:33N 37°57' E 023°36'0 0.4
2014-Nov-25 04:33N 37°57' E 023°36'1 0.6
2014-Nov-25 03:33N 37°57' E 023°37'0 0.0
2014-Nov-25 02:33N 37°57' E 023°37'0 0.0
2014-Nov-25 01:33N 37°57' E 023°37'0 0.0
2014-Nov-25 00:33N 37°57' E 023°37'0 0.0
2014-Nov-24 23:33N 37°57' E 023°37'0 0.0
2014-Nov-24 22:33N 37°57' E 023°37'0 0.0
2014-Nov-24 21:33N 37°57' E 023°37'0 0.0
2014-Nov-24 20:33N 37°57' E 023°37'4 3.8
2014-Nov-24 19:33N 37°60' E 023°33'7 7.3
2014-Nov-24 18:33N 37°58' E 023°24'5 4.9
2014-Nov-24 17:33N 38°01' E 023°29'3 3.2
2014-Nov-24 16:33N 38°02' E 023°32'0 0.0
2014-Nov-24 15:33N 38°02' E 023°32'0 0.0
2014-Nov-24 14:33N 38°02' E 023°32'0 0.0
2014-Nov-24 13:33N 38°02' E 023°32'0 0.0
2014-Nov-24 12:33N 38°02' E 023°32'2 2.5
2014-Nov-24 11:33N 38°01' E 023°36'0 0.0
2014-Nov-24 10:33N 38°01' E 023°36'0 0.0
2014-Nov-24 09:20N 38°01' E 023°36'0 0.1
2014-Nov-24 08:32N 38°01' E 023°35'1 0.9
2014-Nov-24 07:33N 38°01' E 023°35'1 0.9
2014-Nov-24 06:33N 38°01' E 023°36'0 0.0
2014-Nov-24 05:33N 38°01' E 023°36'0 0.0
2014-Nov-24 04:33N 38°01' E 023°36'0 0.0
2014-Nov-24 03:33N 38°01' E 023°36'0 0.0
2014-Nov-24 02:33N 38°01' E 023°36'0 0.0
2014-Nov-24 01:33N 38°01' E 023°36'0 0.0
2014-Nov-24 00:33N 38°01' E 023°36'0 0.0
2014-Nov-23 23:33N 38°01' E 023°36'0 0.0
2014-Nov-23 22:33N 38°01' E 023°36'0 0.0
2014-Nov-23 21:33N 38°01' E 023°36'0 0.0
2014-Nov-23 20:33N 38°01' E 023°36'0 0.0
2014-Nov-23 19:33N 38°01' E 023°36'0 0.0
2014-Nov-23 18:33N 38°01' E 023°36'0 0.0
2014-Nov-23 17:33N 38°01' E 023°36'0 0.0
2014-Nov-23 16:33N 38°01' E 023°36'0 0.2
2014-Nov-23 15:33N 38°02' E 023°36'3 2.6
2014-Nov-23 14:33N 38°01' E 023°32'1 0.6
2014-Nov-23 13:33N 38°02' E 023°32'0 0.0
2014-Nov-23 12:33N 38°02' E 023°32'0 0.0
2014-Nov-23 11:33N 38°02' E 023°32'0 0.0
2014-Nov-23 10:33N 38°02' E 023°32'0 0.0
2014-Nov-23 09:33N 38°02' E 023°32'7 6.7
2014-Nov-23 08:33N 37°58' E 023°26'2 1.9
2014-Nov-23 07:33N 37°58' E 023°23'5 4.9
2014-Nov-23 06:33N 38°00' E 023°28'6 6.2
2014-Nov-23 05:33N 37°57' E 023°35'1 1.0
2014-Nov-23 04:33N 37°57' E 023°37'0 0.0
2014-Nov-23 03:33N 37°57' E 023°37'0 0.0
2014-Nov-23 02:33N 37°57' E 023°37'0 0.0
2014-Nov-23 01:33N 37°57' E 023°37'0 0.0
2014-Nov-23 00:15N 37°57' E 023°37'0 0.0
2014-Nov-22 23:33N 37°57' E 023°37'0 0.0
2014-Nov-22 22:33N 37°57' E 023°37'0 0.0
2014-Nov-22 21:33N 37°57' E 023°37'0 0.0
2014-Nov-22 20:33N 37°57' E 023°37'0 0.0
2014-Nov-22 19:33N 37°57' E 023°37'0 0.0
2014-Nov-22 18:33N 37°57' E 023°37'0 0.0
2014-Nov-22 17:33N 37°57' E 023°37'0 0.0
2014-Nov-22 16:33N 37°57' E 023°37'0 0.0
2014-Nov-22 15:33N 37°57' E 023°37'0 0.0
2014-Nov-22 14:33N 37°57' E 023°37'0 0.0
2014-Nov-22 13:33N 37°57' E 023°37'0 0.0
2014-Nov-22 12:33N 37°57' E 023°37'0 0.0
2014-Nov-22 11:33N 37°57' E 023°37'0 0.0
2014-Nov-22 10:33N 37°57' E 023°37'0 0.0
2014-Nov-22 09:33N 37°57' E 023°37'0 0.0
2014-Nov-22 08:33N 37°57' E 023°37'0 0.0
2014-Nov-22 07:33N 37°57' E 023°37'0 0.0
2014-Nov-22 06:33N 37°57' E 023°37'0 0.0
2014-Nov-22 05:33N 37°57' E 023°37'0 0.0
2014-Nov-22 04:33N 37°57' E 023°37'0 0.0
2014-Nov-22 03:33N 37°57' E 023°37'0 0.0
2014-Nov-22 02:33N 37°57' E 023°37'0 0.0
2014-Nov-22 01:33N 37°57' E 023°37'0 0.0
2014-Nov-22 00:33N 37°57' E 023°37'0 0.0
2014-Nov-21 23:33N 37°57' E 023°37'0 0.0
2014-Nov-21 22:33N 37°57' E 023°37'0 0.0
2014-Nov-21 21:33N 37°57' E 023°37'0 0.0
2014-Nov-21 20:33N 37°57' E 023°37'0 0.0
2014-Nov-21 19:33N 37°57' E 023°37'0 0.0
2014-Nov-21 18:33N 37°57' E 023°37'0 0.0
2014-Nov-21 17:33N 37°57' E 023°37'0 0.0
2014-Nov-21 16:33N 37°57' E 023°37'2 2.5
2014-Nov-21 15:33N 37°57' E 023°33'3 3.2
2014-Nov-21 14:33N 37°54' E 023°34'3 2.9
2014-Nov-21 13:33N 37°57' E 023°35'1 1.0
2014-Nov-21 12:33N 37°57' E 023°37'1 1.0
2014-Nov-21 11:33N 37°57' E 023°36'1 1.0
2014-Nov-21 10:33N 37°57' E 023°37'0 0.0
2014-Nov-21 09:33N 37°57' E 023°37'2 2.2
2014-Nov-21 08:33N 37°58' E 023°34'2 1.8
2014-Nov-21 07:34N 37°57' E 023°36'0 0.0
2014-Nov-21 06:33N 37°57' E 023°36'0 0.0
2014-Nov-21 05:33N 37°57' E 023°36'1 0.6
2014-Nov-21 04:33N 37°57' E 023°35'1 1.1
2014-Nov-21 03:33N 37°57' E 023°37'0 0.0
2014-Nov-21 02:32N 37°57' E 023°37'0 0.0
2014-Nov-21 01:33N 37°57' E 023°37'0 0.0
2014-Nov-21 00:33N 37°57' E 023°37'0 0.0
2014-Nov-20 23:33N 37°57' E 023°37'0 0.0
2014-Nov-20 22:33N 37°57' E 023°37'0 0.0
2014-Nov-20 21:33N 37°57' E 023°37'0 0.0
2014-Nov-20 20:33N 37°57' E 023°37'0 0.0
2014-Nov-20 19:33N 37°57' E 023°37'0 0.0
2014-Nov-20 18:33N 37°57' E 023°37'0 0.0
2014-Nov-20 17:33N 37°57' E 023°37'1 1.1
2014-Nov-20 16:33N 37°57' E 023°35'1 1.1
2014-Nov-20 15:33N 37°57' E 023°37'0 0.0
2014-Nov-20 14:33N 37°57' E 023°37'0 0.0
2014-Nov-20 13:33N 37°57' E 023°37'0 0.0
2014-Nov-20 12:33N 37°57' E 023°37'0 0.0
2014-Nov-20 11:33N 37°57' E 023°37'1 0.7
2014-Nov-20 10:33N 37°57' E 023°36'1 0.7
2014-Nov-20 09:33N 37°57' E 023°37'0 0.0
2014-Nov-20 08:33N 37°57' E 023°37'1 1.1
2014-Nov-20 07:33N 37°57' E 023°35'2 1.8
2014-Nov-20 06:32N 37°58' E 023°33'3 3.5
2014-Nov-20 05:33N 37°55' E 023°37'2 0.6
2014-Nov-20 02:31N 37°57' E 023°37'0 0.0
2014-Nov-20 01:16N 37°57' E 023°37'0 0.0
2014-Nov-20 00:34N 37°57' E 023°37'0 0.0
2014-Nov-19 23:33N 37°57' E 023°37'0 0.0
2014-Nov-19 22:33N 37°57' E 023°37'0 0.0
2014-Nov-19 21:33N 37°57' E 023°37'0 0.0
2014-Nov-19 20:33N 37°57' E 023°37'0 0.0
2014-Nov-19 19:33N 37°57' E 023°37'0 0.0
2014-Nov-19 18:33N 37°57' E 023°37'6 6.5
2014-Nov-19 17:33N 38°02' E 023°30'0 0.4
2014-Nov-19 16:33N 38°02' E 023°31'0 0.0
2014-Nov-19 15:33N 38°02' E 023°31'1 0.6
2014-Nov-19 14:33N 38°02' E 023°31'7 7.5
2014-Nov-19 13:33N 37°56' E 023°37'0 0.0
2014-Nov-19 12:33N 37°56' E 023°37'0 0.0
2014-Nov-19 11:33N 37°56' E 023°37'3 2.5
2014-Nov-19 10:33N 37°57' E 023°34'6 6.0
2014-Nov-19 09:33N 38°02' E 023°30'0 0.5
2014-Nov-19 08:33N 38°02' E 023°31'6 6.3
2014-Nov-19 07:33N 37°57' E 023°36'1 0.7
2014-Nov-19 06:33N 37°57' E 023°37'1 1.0
2014-Nov-19 05:33N 37°57' E 023°35'0 0.1
2014-Nov-19 04:33N 37°57' E 023°35'1 1.0
2014-Nov-19 03:33N 37°57' E 023°37'0 0.0
2014-Nov-19 02:33N 37°57' E 023°37'0 0.0
2014-Nov-19 01:33N 37°57' E 023°37'4 4.5
2014-Nov-19 00:33N 38°00' E 023°32'1 1.3
2014-Nov-18 23:33N 38°01' E 023°31'2 2.2
2014-Nov-18 22:33N 37°60' E 023°33'4 3.6
2014-Nov-18 21:33N 37°57' E 023°37'0 0.0
2014-Nov-18 20:33N 37°57' E 023°37'0 0.0
2014-Nov-18 19:20N 37°57' E 023°37'0 0.0
2014-Nov-18 18:33N 37°57' E 023°37'0 0.0
2014-Nov-18 17:33N 37°57' E 023°37'0 0.0
2014-Nov-18 16:33N 37°57' E 023°37'0 0.0
2014-Nov-18 15:33N 37°57' E 023°37'0 0.0
2014-Nov-18 14:33N 37°57' E 023°37'0 0.2
2014-Nov-18 12:32N 37°57' E 023°36'0 0.5
2014-Nov-18 11:33N 37°57' E 023°37'0 0.0
2014-Nov-18 10:33N 37°57' E 023°37'1 0.8
2014-Nov-18 09:33N 37°57' E 023°36'5 4.6
2014-Nov-18 08:33N 38°02' E 023°36'4 4.4
2014-Nov-18 07:33N 37°58' E 023°34'1 1.1
2014-Nov-18 06:33N 37°57' E 023°35'0 0.1
2014-Nov-18 05:33N 37°57' E 023°35'0 0.4
2014-Nov-18 04:32N 37°57' E 023°36'1 0.6
2014-Nov-18 03:15N 37°57' E 023°37'0 0.0
2014-Nov-18 01:33N 37°57' E 023°37'0 0.0
2014-Nov-18 00:33N 37°57' E 023°37'0 0.0
2014-Nov-17 23:33N 37°57' E 023°37'0 0.0
2014-Nov-17 22:33N 37°57' E 023°37'  

Dump ship's entire track history